Date String (YYYY-MM-DD hh:mm:ss) UTC,Instrument flags,absolute air pressure of the measurement (hPa),sample flow rate (lpm),inlet stack bypass flow (lpm),air temperature of the measurement (°C),ambient temperature measured by the external sensor (°C),aerosol sample conditioner tube jacket temperature (°C),OPC LED temperature (°C),internal box temperature (°C),relative humidity of the measurement (%),span deviation,mass concentration of particles derived from Lorenz-Mie calculation of OPC scattering (μg/m³),mass concentration of particles derived from Lorenz-Mie calculation of OPC scattering (μg/m³),mass concentration of particles derived from Lorenz-Mie calculation of OPC scattering (μg/m³)
DateTimeUTC,F1_M11,P_M11,Q1_M11,Q2_M11,T1_M11,T2_M11,T3_M11,T4_M11,T5_M11,U1_M11,ZSPAN_M11,X2_M11,X0_M11,X1_M11
2023-06-13 11:00:00,SystemResetWarning,0829.6,5.00,000.00,029.8,028.1,000.0,038.3,031.2,26.0,0000.0,0004.33,0007.55,0003.84
2023-06-13 11:01:00,SystemResetWarning,0829.6,5.00,000.00,029.8,028.1,000.0,038.3,031.2,26.0,0000.0,0004.38,0007.95,0003.87
2023-06-13 11:02:00,SystemResetWarning,0829.6,5.00,000.00,029.8,028.1,000.0,038.3,031.2,26.0,0000.0,0004.41,0008.18,0003.89
2023-06-13 11:03:00,SystemResetWarning,0829.6,5.00,000.00,029.8,028.1,000.0,038.3,031.2,26.0,0000.0,0004.42,0008.61,0003.91
2023-06-13 11:04:00,SystemResetWarning,0829.6,5.00,000.00,029.8,028.1,000.0,038.3,031.2,26.0,0000.0,0004.46,0008.75,0003.95
2023-06-13 11:05:00,SystemResetWarning,0829.6,5.00,000.00,029.8,028.1,000.0,038.3,031.2,26.0,0000.0,0004.44,0008.79,0003.96
2023-06-13 11:06:00,SystemResetWarning,0829.6,4.99,000.00,029.8,028.1,000.0,038.3,031.2,26.0,0000.0,0004.44,0008.84,0003.98
2023-06-13 11:07:00,SystemResetWarning,0829.6,5.00,000.00,029.8,028.1,000.0,038.3,031.2,26.0,0000.0,0004.46,0008.79,0004.01
2023-06-13 11:08:00,SystemResetWarning,0829.6,5.00,000.00,029.8,028.1,000.0,038.3,031.2,26.1,0000.0,0004.50,0008.80,0004.04
2023-06-13 11:09:00,SystemResetWarning,0829.6,5.00,000.00,029.8,028.1,000.0,038.3,031.2,26.1,0000.0,0004.58,0008.94,0004.07
2023-06-13 11:10:00,SystemResetWarning,0829.6,5.00,000.00,029.8,028.1,000.0,038.3,031.2,26.1,0000.0,0004.63,0008.97,0004.11
2023-06-13 11:11:00,SystemResetWarning,0829.6,5.00,000.00,029.8,028.1,000.0,038.3,031.2,26.1,0000.0,0004.61,0008.87,0004.12
2023-06-13 11:12:00,SystemResetWarning,0829.6,5.00,000.00,029.8,028.1,000.0,038.3,031.2,26.1,0000.0,0004.59,0008.44,0004.14
2023-06-13 11:13:00,SystemResetWarning,0829.6,5.00,000.00,029.8,028.1,000.0,038.3,031.2,26.1,0000.0,0004.59,0008.24,0004.17
2023-06-13 11:14:00,SystemResetWarning,0829.6,4.98,000.00,029.8,028.1,000.0,038.3,031.2,26.2,0000.0,0004.65,0007.91,0004.20
2023-06-13 11:15:00,SystemResetWarning,0829.6,5.00,000.00,029.8,028.1,000.0,038.3,031.2,26.2,0000.0,0004.66,0007.81,0004.23
2023-06-13 11:16:00,SystemResetWarning,0829.7,5.00,000.00,029.8,028.1,000.0,038.3,031.2,26.2,0000.0,0004.69,0007.73,0004.25
2023-06-13 11:17:00,SystemResetWarning,0829.6,5.00,000.00,029.8,028.1,000.0,038.3,031.2,26.3,0000.0,0004.72,0007.68,0004.28
2023-06-13 11:18:00,SystemResetWarning,0829.6,5.01,000.00,029.8,028.1,000.0,038.3,031.2,26.4,0000.0,0004.76,0007.79,0004.32
2023-06-13 11:19:00,SystemResetWarning,0829.6,5.00,000.00,029.8,028.1,000.0,038.3,031.2,26.3,0000.5,0004.82,0007.88,0004.35
2023-06-13 11:20:00,SystemResetWarning,0829.7,4.99,000.00,029.8,028.1,000.0,038.3,031.2,26.3,0001.3,0004.82,0007.83,0004.38
2023-06-13 11:21:00,SystemResetWarning,0829.6,4.99,000.00,029.8,028.1,000.0,038.3,031.2,26.3,0000.6,0004.81,0007.81,0004.39
2023-06-13 11:22:00,SystemResetWarning,0829.6,5.00,000.00,029.8,028.1,000.0,038.3,031.2,26.4,0000.9,0004.85,0008.23,0004.41
2023-06-13 11:23:00,SystemResetWarning,0829.6,5.00,000.00,029.8,028.1,000.0,038.3,031.2,26.4,0000.4,0004.90,0008.99,0004.44
2023-06-13 11:24:00,SystemResetWarning,0829.7,5.00,000.00,029.8,028.1,000.0,038.3,031.2,26.4,0000.0,0004.91,0008.98,0004.46
2023-06-13 11:25:00,SystemResetWarning,0829.6,5.00,000.00,029.8,028.1,000.0,038.3,031.2,26.4,0000.3,0004.94,0009.11,0004.48
2023-06-13 11:26:00,SystemResetWarning,0829.7,5.00,000.00,029.8,028.1,000.0,038.3,031.2,26.4,-000.0,0004.99,0009.29,0004.50
2023-06-13 11:27:00,SystemResetWarning,0829.7,5.00,000.00,029.8,028.1,000.0,038.3,031.2,26.5,-000.3,0005.04,0009.36,0004.54
2023-06-13 11:28:00,SystemResetWarning,0829.7,5.00,000.00,029.8,028.1,000.0,038.3,031.2,26.6,-000.9,0005.12,0009.47,0004.61
2023-06-13 11:29:00,SystemResetWarning,0829.7,5.00,000.00,029.8,028.0,000.0,038.3,031.2,26.7,-000.8,0005.26,0009.62,0004.75
2023-06-13 11:30:00,SystemResetWarning,0829.7,5.00,000.00,029.8,028.1,000.0,038.3,031.2,26.7,-000.8,0005.36,0009.74,0004.84
2023-06-13 11:31:00,SystemResetWarning,0829.7,5.00,000.00,029.8,028.1,000.0,038.3,031.2,26.7,-001.1,0005.45,0009.84,0004.94
2023-06-13 11:32:00,SystemResetWarning,0829.7,5.00,000.00,029.8,028.1,000.0,038.3,031.2,26.7,-000.8,0005.57,0010.01,0005.04
2023-06-13 11:33:00,SystemResetWarning,0829.7,4.99,000.00,029.8,028.1,000.0,038.3,031.2,26.7,-000.5,0005.69,0009.87,0005.13
2023-06-13 11:34:00,SystemResetWarning,0829.8,5.00,000.00,029.8,028.1,000.0,038.3,031.2,26.7,-000.1,0005.77,0009.27,0005.22
2023-06-13 11:35:00,SystemResetWarning,0829.8,5.01,000.00,029.8,028.0,000.0,038.3,031.2,26.8,0000.6,0005.88,0009.56,0005.33
2023-06-13 11:36:00,SystemResetWarning,0829.8,5.01,000.00,029.8,028.0,000.0,038.3,031.2,26.8,0000.8,0006.05,0009.67,0005.51
2023-06-13 11:37:00,SystemResetWarning,0829.8,5.00,000.00,029.8,028.0,000.0,038.3,031.2,26.9,0001.0,0006.25,0009.78,0005.73
2023-06-13 11:38:00,SystemResetWarning,0829.8,5.00,000.00,029.8,028.0,000.0,038.3,031.2,27.0,0001.2,0006.47,0010.12,0005.96
2023-06-13 11:39:00,SystemResetWarning,0829.8,5.00,000.00,029.8,028.0,000.0,038.3,031.2,27.0,0001.6,0006.66,0010.65,0006.15
2023-06-13 11:40:00,SystemResetWarning,0829.8,5.00,000.00,029.8,028.0,000.0,038.3,031.2,27.1,0001.9,0006.78,0010.69,0006.29
2023-06-13 11:41:00,SystemResetWarning,0829.8,4.98,000.00,029.8,028.0,000.0,038.3,031.2,27.1,0001.9,0006.96,0010.80,0006.49
2023-06-13 11:42:00,SystemResetWarning,0829.8,5.00,000.00,029.7,028.0,000.0,038.3,031.2,27.1,0002.0,0007.18,0011.02,0006.72
2023-06-13 11:43:00,SystemResetWarning,0829.8,5.01,000.00,029.7,028.0,000.0,038.3,031.2,27.2,0002.1,0007.44,0011.24,0007.00
2023-06-13 11:44:00,SystemResetWarning,0829.8,4.99,000.00,029.7,028.0,000.0,038.3,031.2,27.3,0002.3,0007.69,0011.48,0007.27
2023-06-13 11:45:00,SystemResetWarning,0829.8,4.99,000.00,029.7,028.0,000.0,038.3,031.2,27.3,0002.4,0007.96,0011.77,0007.53
2023-06-13 11:46:00,SystemResetWarning,0829.8,5.01,000.00,029.8,028.0,000.0,038.3,031.2,27.3,0002.0,0008.18,0011.79,0007.74
2023-06-13 11:47:00,SystemResetWarning,0829.8,5.01,000.00,029.8,028.0,000.0,038.3,031.2,27.4,0001.7,0008.33,0011.84,0007.90
2023-06-13 11:48:00,SystemResetWarning,0829.8,4.99,000.00,029.7,028.0,000.0,038.3,031.2,27.4,0001.5,0008.43,0011.88,0008.00
2023-06-13 11:49:00,SystemResetWarning,0829.8,4.99,000.00,029.7,028.0,000.0,038.3,031.1,27.4,0001.4,0008.52,0011.88,0008.07
2023-06-13 11:50:00,SystemResetWarning,0829.8,5.00,000.00,029.7,028.0,000.0,038.3,031.2,27.4,0001.5,0008.57,0011.50,0008.10
2023-06-13 11:51:00,SystemResetWarning,0829.8,4.99,000.00,029.8,028.0,000.0,038.3,031.1,27.4,0001.2,0008.61,0011.61,0008.11
2023-06-13 11:52:00,SystemResetWarning,0829.8,5.00,000.00,029.7,028.0,000.0,038.3,031.1,27.5,0001.4,0008.61,0011.68,0008.10
2023-06-13 11:53:00,SystemResetWarning,0829.8,5.01,000.00,029.7,028.0,000.0,038.3,031.1,27.5,0001.4,0008.57,0011.77,0008.06
2023-06-13 11:54:00,SystemResetWarning,0829.8,5.00,000.00,029.7,028.0,000.0,038.3,031.1,27.5,0001.2,0008.52,0011.75,0007.99
2023-06-13 11:55:00,SystemResetWarning,0829.8,5.01,000.00,029.7,028.0,000.0,038.3,031.1,27.6,0000.4,0008.45,0011.64,0007.93
2023-06-13 11:56:00,SystemResetWarning,0829.8,5.00,000.00,029.7,028.0,000.0,038.3,031.1,27.6,0000.6,0008.40,0011.53,0007.89
2023-06-13 11:57:00,SystemResetWarning,0829.8,5.00,000.00,029.7,028.0,000.0,038.3,031.1,27.7,0000.9,0008.39,0011.50,0007.88
2023-06-13 11:58:00,SystemResetWarning,0829.8,5.00,000.00,029.7,028.0,000.0,038.3,031.1,27.6,0001.0,0008.37,0011.65,0007.85
2023-06-13 11:59:00,SystemResetWarning,0829.9,5.00,000.00,029.7,028.0,000.0,038.3,031.1,27.6,0001.1,0008.33,0011.72,0007.83
